Location: Platte
(43.3870°N, 98.8440°W)
Time: 20:38:21
(UTC-05:00)

DNEPR-1 R/B - Pass Details

Date: 21 May 2018
Orbit: 570 x 1352 km, 64.6° (Epoch: 20 August)

Event Time Altitude Azimuth Distance (km) Brightness Sun altitude
Rises 21:48:51 0° 199° (SSW) 2,761 6.7 -8.3°
Reaches altitude 10° 21:51:01 10° 193° (SSW) 1,886 5.8 -8.6°
Maximum altitude 21:55:02 50° 118° (ESE) 783 3.7 -9.2°
Drops below altitude 10° 21:59:34 10° 43° (NE) 2,119 6.3 -9.8°
Sets 22:02:08 0° 39° (NE) 3,144 7.2 -10.1°
